GFSCGP_con_3kmhel_021.txt.gz
Helicity
215 250 193 161 180 198 166 170 148 141 113 145 121 149 110 111 181 143 142 161 184 199 180 235 233 232 231 255 265 274 284 280 229 154 124 160 171 193 231 195 217 193 165 139
272 200 89 166 167 161 204 198 151 134 112 156 119 106 78 102 134 75 171 184 196 206 248 288 304 311 322 279 272 288 290 255 217 178 115 86 103 183 181 188 196 173 150 153
236 173 185 178 196 216 196 181 166 114 107 115 136 129 132 168 132 161 229 232 244 210 207 241 298 343 333 358 325 283 262 250 234 194 147 127 99 128 149 150 132 150 142 139
153 147 176 187 183 244 195 155 141 145 185 184 194 195 199 153 187 186 225 244 204 189 208 233 277 325 325 296 246 224 225 214 233 180 168 190 153 135 99 103 111 130 168 169
92 99 107 132 91 155 94 122 136 137 151 216 208 221 145 127 161 218 202 194 209 190 185 252 273 287 284 249 226 205 212 235 222 188 125 94 92 61 78 99 131 148 150 185
112 149 121 101 144 133 148 183 204 202 194 259 186 224 234 159 155 188 191 204 183 182 206 249 270 246 218 173 168 170 162 132 91 61 50 35 47 70 97 133 132 140 140 160
141 94 104 111 133 161 199 246 223 215 267 249 202 275 235 257 259 227 249 203 173 212 198 199 204 176 147 134 131 134 127 115 69 63 77 58 56 71 86 80 91 135 149 155
172 197 135 120 105 138 207 231 266 204 216 155 189 313 303 240 238 211 236 250 282 206 175 151 126 97 91 108 127 125 131 111 98 103 114 94 98 83 93 119 110 113 115 140
156 168 142 140 177 214 250 311 274 317 296 285 334 389 326 333 371 348 343 273 166 117 108 90 63 55 58 64 83 91 94 96 106 101 83 94 87 93 82 98 96 91 108 127
170 194 134 158 231 253 269 249 405 475 489 514 425 357 352 206 189 239 226 111 108 125 93 53 44 27 55 85 104 123 120 104 72 77 66 63 63 50 41 54 77 89 86 84
181 193 194 258 281 327 353 376 410 341 437 476 443 358 275 194 219 161 134 122 116 76 38 31 40 82 106 121 145 160 149 107 74 54 51 54 63 83 105 116 102 86 69 76
185 224 243 256 271 260 284 298 395 398 394 458 447 364 364 317 228 194 126 56 34 15 14 24 61 90 130 153 155 140 141 133 122 140 147 133 135 158 168 145 108 72 82 56
213 264 308 323 305 344 383 400 423 486 497 456 442 494 380 400 212 163 181 103 64 56 68 87 136 178 197 184 168 166 159 147 166 169 167 175 168 135 88 55 39 30 22 18
253 323 374 297 310 301 338 336 363 419 449 399 366 362 404 284 222 213 134 93 66 94 133 157 195 205 187 196 190 183 167 170 168 159 166 158 134 97 71 51 38 39 38 33
271 310 382 324 312 344 321 369 451 457 436 473 459 324 263 211 177 136 100 121 139 99 103 129 156 181 206 219 203 182 162 158 178 181 167 154 139 124 108 89 70 53 39 39
355 382 407 380 343 345 361 366 356 349 380 348 265 237 207 178 147 148 106 120 135 115 100 96 131 185 222 206 162 170 156 181 201 203 215 206 171 136 111 80 58 49 45 41
309 396 442 336 442 491 451 429 387 368 351 344 321 251 207 179 150 135 135 159 114 108 106 124 157 186 205 180 166 179 193 249 287 287 254 229 184 147 115 89 78 69 54 49
358 366 331 371 463 460 498 404 411 357 287 278 318 219 173 167 194 215 217 183 142 162 178 186 193 186 151 162 181 234 304 346 353 331 279 216 179 147 115 98 77 65 60 64
400 387 398 433 514 497 412 409 331 282 191 212 198 198 201 254 293 261 160 139 170 195 170 174 161 160 158 161 226 323 383 410 374 291 257 238 202 154 132 107 92 82 82 78
416 478 423 491 539 501 349 351 325 358 318 153 183 150 207 285 268 194 110 213 200 194 184 149 146 182 193 217 292 355 357 335 300 278 266 230 186 157 134 107 93 98 97 87
559 513 412 427 452 435 331 298 327 382 255 171 110 158 204 222 185 134 163 196 192 176 144 146 178 174 200 286 326 323 316 279 288 283 245 212 179 134 112 109 110 104 98 94
416 376 441 524 551 526 373 519 379 196 172 128 141 148 155 131 137 195 199 194 203 159 157 164 186 203 259 318 343 333 299 311 309 265 215 186 159 146 126 116 106 110 117 105
408 405 351 347 314 319 87 164 109 181 188 181 182 118 146 174 208 207 220 208 192 179 159 214 234 284 324 361 359 319 300 326 278 235 174 170 160 142 125 121 105 113 105 117
283 328 370 464 358 287 114 54 107 170 169 168 184 171 230 252 245 214 198 204 193 191 201 258 328 341 367 376 363 332 321 296 264 208 173 172 149 137 118 110 104 105 114 124
235 275 394 401 317 299 143 114 150 144 155 186 201 215 235 237 205 225 205 203 185 210 260 309 324 354 366 390 352 324 290 273 233 196 170 155 151 120 104 96 96 97 108 111
357 385 449 302 172 167 152 104 80 122 128 147 168 177 175 215 203 222 222 210 222 225 270 307 338 375 383 382 341 305 283 255 216 194 169 160 132 116 99 99 104 67 63 73

GFSCGP_con_3kmhel_024.txt.gz
Helicity
225 236 172 150 171 199 174 173 152 129 113 154 138 146 94 96 169 164 155 175 146 120 112 159 179 200 182 194 208 202 215 227 193 191 185 230 237 202 203 177 184 155 142 121
273 184 108 171 178 200 246 205 172 118 107 147 113 107 86 136 161 129 158 146 124 111 154 205 250 269 268 248 263 260 228 217 204 142 105 104 115 181 150 145 162 142 127 103
231 146 163 189 206 252 235 213 194 136 139 104 108 100 130 209 195 168 174 148 133 145 180 195 228 263 285 304 281 263 244 211 170 108 80 94 130 158 187 199 172 183 155 138
164 174 206 235 217 260 204 152 158 140 153 130 110 140 153 115 156 153 155 152 178 210 186 192 205 251 271 286 243 221 208 196 188 152 174 207 154 147 65 62 65 120 146 149
168 142 145 145 119 143 114 147 133 150 159 203 181 208 146 170 115 136 140 178 183 146 129 171 205 240 258 287 267 226 205 228 205 179 118 77 65 15 3 43 88 106 114 134
163 136 99 88 125 144 137 176 210 206 199 247 185 223 203 181 94 136 179 171 168 123 153 156 229 260 265 277 252 222 198 198 178 145 125 88 56 34 78 93 106 129 136 174
154 102 136 140 167 169 182 189 199 208 260 214 201 250 246 189 199 139 148 172 160 182 182 143 227 214 205 192 168 161 145 122 85 85 88 72 73 102 114 115 110 129 127 127
153 165 142 138 130 150 174 210 247 191 151 125 174 251 201 160 152 146 181 256 199 187 141 165 147 148 119 92 88 70 61 55 55 87 106 130 138 113 112 98 87 98 97 105
156 182 188 167 190 200 204 250 196 215 182 183 187 245 276 287 258 228 225 258 199 170 148 113 135 94 86 65 51 59 84 113 131 151 161 177 153 137 119 114 109 113 136 151
185 245 219 215 230 246 220 180 323 338 302 327 308 311 240 166 164 222 215 175 166 177 159 152 135 102 69 61 88 133 147 168 185 185 180 182 173 150 130 135 132 128 126 127
253 251 263 253 241 255 291 327 337 315 392 421 365 370 239 210 179 159 113 125 163 174 138 124 97 66 79 117 152 169 181 196 197 183 190 201 181 141 114 103 98 104 92 87
248 251 303 272 187 193 218 239 336 369 387 468 500 398 319 245 136 140 121 149 158 133 119 87 70 106 132 131 158 154 181 180 169 179 189 178 169 147 146 143 135 97 114 81
247 345 419 423 349 289 287 309 361 410 402 465 429 474 306 300 212 145 169 155 124 119 114 107 134 147 168 192 200 186 173 184 187 190 212 211 189 172 143 115 91 64 46 36
263 365 436 413 313 259 280 287 319 343 398 330 360 256 359 325 274 246 195 203 141 151 145 150 196 194 234 220 191 192 193 205 219 210 216 205 169 143 117 90 71 56 44 41
337 368 359 306 240 254 250 280 375 416 340 369 282 319 373 300 261 194 194 222 227 217 188 180 172 200 222 208 206 209 214 232 223 231 221 184 172 142 126 109 84 77 72 57
407 381 364 366 311 263 263 255 288 297 381 389 465 358 380 266 200 255 229 203 227 180 162 157 149 137 148 167 184 207 223 203 235 213 208 222 206 180 168 139 118 88 66 54
302 324 400 362 379 327 317 329 363 388 417 377 390 374 295 243 248 209 164 188 161 147 147 147 111 101 127 143 165 208 182 234 230 245 288 294 269 235 200 149 116 98 80 63
344 415 422 449 410 451 423 348 325 208 214 358 485 314 250 258 220 213 169 170 128 144 138 105 79 87 105 146 171 188 218 244 289 339 355 320 284 235 182 163 125 95 79 67
419 434 380 406 434 459 287 435 397 298 213 307 242 252 269 273 290 229 173 158 149 125 88 71 120 169 185 157 154 190 245 304 356 347 342 317 266 224 194 158 122 99 93 78
387 432 378 475 481 474 390 352 329 374 359 179 200 142 245 306 321 202 170 161 101 99 124 156 185 198 166 143 179 230 243 282 283 327 311 286 241 196 172 151 140 108 100 76
405 449 396 409 407 451 376 297 349 418 310 135 124 168 234 230 164 155 150 130 112 139 160 199 193 146 126 169 208 204 253 236 282 314 307 264 224 199 163 153 137 116 98 89
344 314 393 540 496 418 359 477 365 223 198 141 125 133 123 129 136 141 122 121 150 159 173 188 167 143 162 189 221 225 231 293 319 309 279 251 229 201 170 155 130 127 115 107
384 404 326 303 311 351 110 221 142 155 189 154 144 141 151 148 116 103 146 163 170 172 162 198 176 167 199 223 248 257 284 336 326 303 271 242 217 196 182 166 147 143 126 123
273 274 335 410 361 322 153 113 173 139 135 151 167 206 203 148 116 137 157 175 176 186 167 203 236 223 212 264 291 318 355 359 336 293 253 236 213 206 195 186 148 148 128 133
209 288 371 388 362 269 168 109 64 99 116 173 198 167 155 169 144 170 175 164 183 213 245 265 258 259 231 314 352 390 388 367 312 270 239 224 219 196 187 171 158 133 127 122
319 372 397 217 107 150 107 63 81 138 138 123 145 142 145 182 150 180 174 194 206 190 236 242 256 270 274 318 364 391 368 336 304 275 254 238 222 202 180 161 135 98 67 38

GFSCGP_con_3kmhel_030.txt.gz
Helicity
189 141 113 71 71 111 112 91 47 71 105 108 78 65 79 103 119 118 132 117 126 134 121 127 94 95 101 123 152 158 137 125 112 170 205 247 255 237 216 184 172 138 125 106
193 117 57 143 112 111 118 85 41 72 98 110 85 74 46 91 93 120 125 131 151 132 106 114 132 156 174 192 203 171 151 129 109 120 148 156 168 178 163 159 178 162 142 125
148 148 91 139 147 128 117 84 72 84 88 86 100 35 26 94 175 161 179 204 195 148 138 127 137 155 172 204 184 156 146 147 147 147 148 150 156 170 189 205 180 172 154 140
127 187 168 142 141 133 84 106 113 104 118 95 136 108 71 81 83 92 121 137 164 160 164 151 155 194 245 235 197 179 175 194 174 132 126 146 148 152 137 132 121 125 128 119
171 131 148 140 159 160 160 160 97 137 119 159 125 138 93 114 43 75 96 118 119 121 136 161 176 212 234 229 215 195 206 210 209 213 193 170 178 133 97 82 95 96 113 133
224 247 197 178 225 177 216 271 236 206 184 162 113 150 115 111 93 128 104 96 111 124 155 171 179 196 222 232 265 260 275 287 240 218 201 168 144 88 59 50 71 79 96 109
168 148 204 263 291 304 288 229 222 188 225 212 188 140 225 92 140 144 91 86 99 120 154 156 149 176 206 258 289 291 296 295 232 225 211 150 126 85 73 91 104 101 97 106
161 131 153 231 230 242 214 191 275 198 196 175 217 160 154 126 171 140 117 117 140 147 128 95 109 157 210 261 294 317 298 284 204 199 182 138 104 102 163 170 154 146 143 131
160 161 173 214 256 249 284 296 221 248 237 181 193 220 190 232 150 137 151 138 134 142 87 93 135 174 219 245 284 292 291 232 177 163 137 119 138 190 213 221 199 166 148 134
221 163 191 259 273 276 287 236 317 319 257 192 175 191 192 153 98 140 126 117 129 123 127 112 138 175 191 245 274 271 226 179 146 132 145 175 217 240 226 199 213 197 176 154
278 226 227 320 332 311 345 356 345 293 319 273 199 188 162 113 101 107 130 141 142 124 106 139 169 179 207 240 253 231 178 145 130 144 196 232 232 211 218 216 198 196 182 170
286 267 236 277 321 317 230 271 375 348 307 371 352 241 207 260 229 229 225 164 120 104 118 150 163 207 208 201 211 177 140 127 146 214 244 230 230 221 207 216 226 211 205 170
344 271 227 260 290 346 363 374 294 286 357 335 349 313 243 276 295 201 201 165 124 133 143 154 181 171 183 186 195 169 141 156 209 237 236 227 210 208 222 236 228 207 176 149
346 328 319 314 302 339 429 445 439 412 397 400 427 368 386 344 267 203 162 142 171 152 144 181 194 197 205 206 214 208 181 172 228 230 213 208 212 221 249 238 233 201 168 126
450 326 323 260 283 301 353 347 394 406 380 443 326 362 411 292 235 182 146 200 208 143 213 226 204 222 225 242 258 272 221 226 225 225 230 215 245 268 263 252 229 196 158 135
660 460 385 343 360 342 333 330 393 346 315 337 383 317 317 215 273 246 216 214 197 228 231 204 218 258 261 265 246 235 234 206 237 259 237 247 297 302 268 249 222 202 187 165
663 657 674 533 569 621 533 520 612 552 463 455 451 371 435 297 217 214 213 216 234 237 213 262 250 250 243 220 204 199 198 231 309 299 301 330 313 287 261 256 247 230 204 190
608 685 806 606 731 613 476 557 438 543 511 401 432 414 297 237 230 249 270 232 226 242 267 229 258 248 251 213 186 172 209 254 272 265 277 265 274 289 299 287 277 262 233 200
852 863 750 726 688 693 547 675 607 515 259 288 176 284 282 285 293 272 233 222 210 213 215 211 225 219 199 198 207 217 213 197 203 195 198 236 280 317 343 338 295 265 231 201
667 576 532 463 554 625 501 381 252 312 344 221 192 242 267 281 283 181 178 207 207 208 195 190 192 217 202 197 201 199 177 183 163 163 194 250 288 326 335 294 281 257 226 199
780 688 525 582 504 477 282 180 311 366 301 171 114 198 238 213 201 207 174 171 166 165 167 205 208 187 175 216 224 185 205 166 136 216 231 225 228 274 281 288 272 242 215 200
495 493 519 523 451 399 268 415 340 226 225 145 106 113 103 176 198 207 185 203 193 173 182 177 193 158 164 208 209 183 171 134 189 198 209 213 245 263 278 278 264 243 221 198
383 425 428 358 403 448 120 256 207 165 125 104 104 73 113 164 165 200 209 208 175 150 145 166 156 152 182 197 190 187 136 202 222 233 233 241 255 267 276 276 253 240 223 211
312 264 293 217 190 191 89 268 208 161 101 115 116 155 167 129 185 205 227 201 174 147 127 144 173 164 151 165 191 157 210 242 263 256 264 273 269 285 293 274 250 234 232 235
209 179 238 277 259 262 90 54 44 55 138 183 230 182 139 211 208 211 212 186 136 123 138 160 175 164 114 164 198 220 251 281 283 282 288 276 275 281 265 229 220 225 224 241
195 231 247 170 44 92 56 -14 40 101 102 138 190 214 184 187 191 199 182 158 149 140 144 172 171 180 140 191 191 229 282 306 314 286 294 287 288 278 259 248 226 177 166 167

GFSCGP_con_3kmhel_033.txt.gz
Helicity
128 148 129 64 47 39 124 142 71 76 131 107 59 51 67 106 109 122 131 148 146 130 105 105 118 127 143 133 128 121 126 136 152 184 211 245 249 251 246 215 196 166 156 138
160 124 42 84 120 95 97 90 45 44 153 103 65 42 52 101 174 140 162 185 175 165 125 148 147 154 150 146 152 138 138 110 98 114 155 173 203 212 196 184 207 191 166 163
102 147 111 133 142 121 88 77 49 56 111 37 33 -3 42 71 113 207 209 203 188 136 154 147 145 154 154 152 154 137 123 112 116 136 172 201 202 211 221 223 227 227 196 169
119 150 162 124 85 80 72 60 69 87 111 65 128 16 90 77 146 155 128 141 189 164 175 151 135 136 159 167 191 183 156 151 135 130 155 199 219 273 245 232 214 189 167 153
215 158 132 119 85 118 116 195 132 100 103 84 106 86 3 43 120 102 88 95 112 152 149 147 150 168 185 197 204 180 158 162 167 166 182 246 290 268 240 215 208 171 157 148
221 266 181 162 238 166 216 182 165 127 113 110 103 168 76 124 87 66 149 113 131 132 131 138 166 184 200 216 223 210 213 228 234 233 235 264 270 243 227 220 212 157 127 130
155 170 248 270 231 191 145 169 109 57 93 165 275 135 161 160 113 129 130 124 124 117 122 141 151 167 197 220 228 241 259 294 281 272 274 248 226 195 203 199 157 121 123 128
115 104 136 173 173 142 113 120 193 145 141 118 281 212 238 162 289 172 118 116 134 112 120 123 136 161 195 217 235 273 285 305 287 270 263 239 216 202 193 170 151 148 141 139
154 150 198 136 159 128 153 186 144 285 275 231 196 188 187 213 177 206 197 159 135 105 100 120 142 156 172 205 235 268 289 307 308 298 266 248 212 187 185 186 177 183 179 170
254 219 187 224 243 227 277 245 315 369 338 284 227 145 231 124 115 189 183 112 115 98 105 125 123 149 167 198 248 273 284 289 310 281 254 236 219 204 202 216 218 209 195 171
251 293 271 321 316 221 380 361 336 365 343 350 248 193 145 87 110 137 146 134 134 125 120 130 152 176 213 261 273 275 285 301 302 268 239 227 214 214 241 249 233 213 205 203
326 358 276 249 310 259 216 193 232 384 397 328 292 148 214 188 164 170 198 245 208 161 163 174 202 250 281 283 290 290 287 290 265 246 207 193 208 246 251 255 223 221 232 216
414 398 335 300 305 342 301 289 357 272 382 280 334 298 241 258 264 257 288 277 236 220 189 239 247 277 288 265 290 296 280 272 251 206 181 208 241 260 251 220 244 253 248 244
360 427 425 345 255 196 230 291 342 407 379 335 310 299 336 301 298 323 345 373 277 250 219 233 265 292 278 297 304 291 267 263 231 201 217 225 244 244 219 267 289 279 265 266
459 438 347 241 195 206 161 191 261 337 398 393 239 247 322 388 345 346 349 354 366 258 238 241 257 270 304 319 310 278 261 240 251 286 251 223 252 235 286 317 307 307 294 264
619 425 308 181 222 191 148 215 293 302 235 266 233 206 243 322 317 399 413 406 314 235 214 242 287 336 334 309 295 267 237 274 352 311 253 261 266 315 370 355 337 313 292 268
501 537 529 335 273 215 372 344 368 394 428 411 359 355 498 500 503 425 442 355 260 252 276 295 306 342 316 285 254 257 275 336 334 301 298 327 359 378 359 360 334 299 280 269
466 539 484 346 355 348 363 216 254 210 276 398 396 551 426 487 460 400 347 277 268 336 309 306 291 273 260 262 295 286 327 343 323 301 360 355 384 356 356 350 325 306 296 279
488 511 459 471 469 460 220 338 335 367 237 233 304 490 581 663 566 403 283 280 246 264 272 254 272 269 282 320 309 374 364 319 288 279 272 296 313 338 352 348 337 323 318 295
669 516 530 532 478 490 319 378 359 394 317 413 383 457 454 341 304 241 234 224 264 251 279 315 330 356 337 330 303 309 278 261 232 215 196 253 293 311 317 315 340 342 319 282
593 599 528 492 543 561 466 311 429 506 383 303 328 360 384 320 283 233 207 216 248 307 345 352 325 285 271 252 270 255 270 198 158 235 269 278 269 272 273 302 323 347 325 288
441 485 511 507 529 475 348 446 540 466 480 436 359 300 238 266 251 228 214 238 275 300 288 266 261 240 247 262 264 258 212 174 253 262 261 265 270 271 286 308 331 320 306 290
450 570 518 432 484 582 539 589 552 421 297 205 160 140 154 212 200 196 215 235 231 221 229 225 217 219 231 224 224 239 159 233 257 259 255 276 284 288 293 289 299 296 295 297
345 377 434 437 464 417 286 298 226 132 93 81 146 181 174 169 191 228 238 231 236 231 204 204 211 194 180 185 186 149 225 249 265 262 278 306 315 318 313 277 278 296 303 290
249 190 244 299 227 167 36 90 10 -6 75 124 160 150 129 212 199 204 229 233 204 187 196 202 180 159 119 163 155 189 248 274 272 291 308 313 316 316 305 283 287 297 292 287
133 145 164 150 26 81 -26 -92 -16 66 63 92 143 201 218 188 188 219 218 198 195 179 193 178 155 155 114 158 187 247 270 280 298 309 327 327 326 318 299 282 267 211 200 205

GFSCGP_con_3kmhel_036.txt.gz
Helicity
132 180 183 135 90 59 78 137 144 114 149 123 92 76 63 169 126 121 184 245 226 211 220 174 173 161 175 174 161 131 128 131 154 174 185 196 196 249 284 274 244 241 203 203
228 166 92 84 104 106 89 120 91 84 173 159 97 79 90 126 206 212 190 284 351 380 253 212 180 156 152 154 142 127 138 152 197 154 156 156 186 234 251 251 255 243 261 238
200 168 115 85 173 168 136 139 108 104 121 119 102 41 78 139 175 269 251 278 454 440 253 200 185 174 180 172 150 149 154 163 182 181 192 218 234 233 261 292 314 302 287 272
146 97 182 180 178 159 140 133 93 116 152 137 115 32 86 117 127 172 305 417 499 486 288 212 191 188 185 211 186 176 178 193 164 147 158 169 208 240 250 307 323 326 291 260
272 214 265 255 246 159 194 201 198 165 119 132 144 148 116 51 65 221 441 389 428 437 376 306 222 201 196 189 194 196 219 209 173 139 169 239 276 267 286 316 324 304 264 233
320 322 268 243 293 244 265 202 157 151 130 112 133 190 86 122 135 211 324 308 366 397 360 278 270 245 213 215 216 201 202 217 224 239 239 251 275 283 321 324 336 273 211 180
298 324 349 315 316 320 255 225 157 115 171 163 136 105 225 182 208 139 260 329 308 334 315 299 253 197 178 178 192 205 224 244 249 273 271 283 295 302 320 280 258 240 193 158
248 211 340 352 351 292 193 237 232 174 170 100 163 164 168 212 273 240 214 263 326 311 268 237 178 160 172 189 193 215 239 281 305 322 327 323 335 320 282 240 211 204 172 151
254 184 241 217 200 259 247 226 75 215 199 184 236 291 327 359 312 310 318 290 286 272 241 185 153 176 196 181 182 216 279 324 352 372 380 390 366 353 302 265 226 205 185 178
272 238 207 280 257 224 278 233 351 362 264 161 153 144 223 180 132 234 248 273 263 246 201 175 182 193 180 162 190 263 321 366 388 391 394 383 362 320 277 255 238 220 214 210
292 316 327 294 299 300 451 443 364 344 366 244 152 216 227 222 191 204 197 235 239 206 180 180 188 187 179 188 241 313 382 422 418 402 385 371 329 287 279 250 233 231 236 227
356 392 314 252 263 272 363 352 457 431 378 349 356 67 319 297 220 239 249 263 205 168 189 189 217 218 193 218 302 366 420 419 407 406 385 339 305 290 270 241 243 278 284 250
432 459 386 315 372 399 408 437 380 327 416 307 383 260 234 292 290 213 248 256 231 226 246 301 252 199 219 303 353 405 420 418 432 409 367 333 304 276 244 231 284 312 292 247
352 474 407 384 390 341 380 380 302 387 464 363 294 306 402 309 298 276 224 277 329 326 338 316 238 197 287 346 390 419 436 447 423 407 383 343 289 239 217 265 315 320 269 270
389 461 392 237 187 278 368 323 295 389 377 364 236 202 244 302 311 287 347 386 402 422 410 308 256 219 317 378 391 400 413 430 418 397 380 320 272 230 264 328 340 309 299 293
605 452 341 221 230 342 302 245 368 324 256 227 219 197 332 257 318 367 391 409 448 459 370 300 271 262 316 382 404 394 419 460 419 393 347 326 291 288 341 372 349 340 348 338
590 527 472 272 379 320 342 325 360 412 453 456 336 370 383 270 395 450 471 511 464 423 362 282 243 268 336 365 386 393 410 430 397 364 336 329 343 353 383 382 384 360 333 342
505 449 517 351 409 326 369 314 220 205 228 350 369 377 368 275 328 387 498 571 467 421 354 289 278 326 364 418 404 398 358 391 398 334 329 342 355 363 383 399 371 363 358 326
416 480 490 519 392 277 146 371 355 370 134 187 228 273 373 390 447 467 544 475 479 373 269 266 310 355 365 395 390 401 387 386 347 346 323 298 321 366 383 358 349 346 358 339
520 490 540 527 428 338 251 366 439 406 176 186 257 208 516 589 400 391 495 536 523 334 368 329 300 346 328 361 424 410 408 374 315 296 234 253 311 346 333 317 336 356 365 314
602 651 572 517 477 460 383 261 349 392 292 258 215 354 525 517 430 402 426 482 359 341 307 302 315 319 316 339 380 389 338 231 186 231 245 262 259 258 259 314 354 352 354 342
609 662 567 552 491 410 426 479 398 408 503 381 352 366 485 464 415 306 303 327 300 303 307 307 328 318 309 282 277 273 192 152 209 236 237 229 231 240 271 288 333 335 342 324
613 691 685 600 628 620 558 552 516 555 568 617 528 419 374 384 322 225 176 201 228 238 254 268 279 271 241 215 215 207 147 217 238 243 225 233 242 263 296 319 331 360 339 321
294 351 400 387 456 400 499 515 559 535 506 384 273 193 134 125 137 180 215 198 195 202 204 223 232 219 198 175 161 160 206 229 245 236 240 262 280 302 318 329 347 356 350 329
194 177 260 277 277 249 196 200 184 169 113 109 102 125 139 166 176 172 178 174 173 182 197 189 186 180 142 175 146 180 206 246 247 261 285 299 306 311 321 331 337 332 312 295
108 130 136 123 67 124 72 -33 -65 -38 -5 75 101 133 156 152 164 185 158 152 176 181 213 202 160 155 125 137 152 177 202 233 271 283 296 298 310 322 330 321 319 248 219 203